Погода в Лорино

Россия / Чукотский автономный округ     65°30′09″N   171°42′01″W
темп.,
°C
ветер,
м/с
пор.,
м/с
влажн.,
%
обл.,
%
осадки,
мм/ч
давл.,
гПа
погр.,
м
23 января, сб
сб2300:00−14ссз2298100 0.3 100432
03:00−15сз4589100 0.0 100470
06:00−16сз5688100 0.0 100474
09:00−20сз679263 0.0 100681
12:00−20сз569031 0.0 100781
15:00−21сз569166 0.0 100778
18:00−21сз448662 0.0 100760
21:00−20сз458418 0.0 100767
24 января, вс
вс2400:00−18сз678759 0.0 1006145
03:00−16сз7996100 1.0 1006237
06:00−17ссз7996100 2.6 1005279
09:00−17ссз7995100 1.4 1006284
12:00−17ссз7995100 2.6 1007259
15:00−17сз6896100 0.9 1007222
18:00−17сз6792100 1.4 1008218
21:00−17сз6889100 0.1 1009158
25 января, пн
пн2500:00−18сз6787100 0.1 1009136
03:00−19сз5687100 0.0 1009105
06:00−19ссз568790 0.0 100989
09:00−18сз459294 0.1 1010118
12:00−18сз459595 0.2 1010132
15:00−19сз459696 0.2 1010122
18:00−20сз569496 0.3 1010135
21:00−21сз679199 0.0 1011132
26 января, вт
вт2600:00−23сз679299 0.0 1010124
03:00−24сз689289 0.0 1011130
06:00−24сз799378 0.0 1012187
09:00−22сз789495 0.0 1014330
12:00−22сз689197 0.1 1017379
15:00−23сз6892100 0.1 1020288
18:00−28сз688993 0.1 1024162
21:00−28сз799156 0.0 1027180
27 января, ср
ср2700:00−29сз799438 0.0 1030168
03:00−29сз68930 0.0 1032144
06:00−28сз67920 0.0 1034132
09:00−28сз57910 0.0 1036116
12:00−26ссз56870 0.0 103799
15:00−26ссз44860 0.0 103864
18:00−26сз348712 0.0 103863
21:00−26ссз338993 0.0 103659